Location: San Vito
(41.8833°N, 12.9833°E)
Time: 16:21:43
(UTC+00:00)

Radarsat Rocket - Pass Details

Date: 17 November 2019
Orbit: 933 x 1492 km, 100.6° (Epoch: 12 December)

Event Time Altitude Azimuth Distance (km) Brightness Sun altitude
Rises 04:54:33 0° 18° (NNE) 3,618 7.0 -12.2°
Reaches altitude 10° 04:57:00 10° 22° (NNE) 2,654 6.4 -11.8°
Maximum altitude 05:02:48 67° 104° (ESE) 1,016 4.4 -10.7°
Drops below altitude 10° 05:08:44 10° 187° (S) 2,718 6.5 -9.7°
Sets 05:11:16 0° 190° (S) 3,712 7.1 -9.2°
